DELTA 1 DEB

基本信息
目录编号:
27720
目录名称:
DELTA 1 DEB
国际标识:
1965-004E
轨道中心:
EARTH
物体状态:
在轨
发射日期:
1965-01-22 UTC
轨道信息
数据来源: 国际轨道数据
星历时间: 2026-07-04T06:08:23+0800
半长轴: 8017.79km
偏心率: 0.1166976
轨道倾角: 96.494°
近地点辐角: 331.528°
升交点赤经: 64.282°
平近点角: 22.652°
近地点: 703.996km
远地点: 2575.31km
周期: 119.081分钟
每日圈数: 12.09263
详细信息
发射场:
AFETR
轨道高度:
LEO
数据来源:
AOE Integration Group
参考系:
TEME
时间系统:
UTC
历元类型:
SGP4
2D轨道图
3D轨道图
轨道高度分析图
轨道倾角分析图
轨道综合分析图
查看轨道综合分析图